Location: Finkenbach
(49.5340°N, 8.9188°E)
Time: 21:08:04
(UTC+00:00)

Cosmos 304 Rocket - Pass Details

Date: 17 June 2025
Orbit: 669 x 678 km, 74.0° (Epoch: 16 July)

Event Time Altitude Azimuth Distance (km) Brightness Sun altitude
Exits shadow 23:26:35 31° 165° (SSE) 1,179 4.4 -17.1°
Maximum altitude 23:28:31 51° 107° (ESE) 852 4.1 -17.1°
Drops below altitude 10° 23:33:08 10° 32° (NNE) 2,120 7.2 -17.0°
Sets 23:35:29 0° 28° (NNE) 3,041 8.3 -17.0°
